Tracking 19484 objects as of 18-Jan-2019
HD Live streaming from Space Station
objects crossing your sky now

GLOBALSTAR M043

Track GLOBALSTAR M043 now!
10-day predictions
GLOBALSTAR M043 is classified as:


NORAD ID: 25874
Int'l Code: 1999-041C
Perigee: 2,028.9 km
Apogee: 2,049.2 km
Inclination: 51.9 °
Period: 127.9 minutes
Semi major axis: 8410 km
RCS: 2.4086 m2 (large)
Launch date: July 25, 1999
Source: Globalstar (GLOB)
Launch site: AIR FORCE EASTERN TEST RANGE (AFETR)
aabbcc
Your satellite tracking list
Your tracking list is empty




NASA's NSSDC Master Catalog

Two Line Element Set (TLE):
1 25874U 99041C   19017.86905118 -.00000071 +00000-0 -92298-4 0  9999
2 25874 051.9385 150.0175 0012023 282.2918 222.7577 11.25654161859093
Source of the keplerian elements: AFSPC